Regional Weather Roundup
Issued by NWS Mt. Holly, NJ

Home | Current Version | Previous Version | Text Only | Print | Product List | Glossary On
Versions: 1 2 3 4 5 6 7 8 9 10 11 12 13 14 15 16 17 18 19 20 21 22 23 24 25 26 27 28 29 30 31 32 33 34 35 36 37 38 39 40 41 42 43 44 45 46 47 48 49 50
000
ASUS41 KPHI 280212
RWRPHI

REGIONAL WEATHER ROUNDUP
NATIONAL WEATHER SERVICE MOUNT HOLLY NJ
1000 PM EDT TUE JUN 27 2017

NOTE:  "FAIR" INDICATES FEW OR NO CLOUDS BELOW 12,000 FEET WITH NO
SIGNIFICANT WEATHER AND/OR OBSTRUCTIONS TO VISIBILITY.

 * = STATION DOES NOT REPORT PRECIPITATION (E.G. RAIN, SNOW, ETC.)
        OR FOG.

NJZ015>026-280300-
SOUTHERN NEW JERSEY

CITY           SKY/WX    TMP DP  RH WIND       PRES   REMARKS
POMONA         PTCLDY    71  58  63 SW5       29.99R
WILDWOOD*      CLOUDY    71  58  63 SW6       30.01
MILLVILLE      PTCLDY    63  60  90 W3        30.00R
WRIGHTSTOWN    PTCLDY    67  52  58 CALM      29.97R
MOUNT HOLLY    PTCLDY    71  48  43 W3        29.99R
TRENTON        PTCLDY    68  52  56 NW3       29.99R

$$
NJZ001>014-280300-
NORTHERN NEW JERSEY

CITY           SKY/WX    TMP DP  RH WIND       PRES   REMARKS
SUSSEX         CLEAR     58  54  86 W3        30.00R
ANDOVER*         N/A     58  55  90 CALM      30.00R
MORRISTOWN     PTCLDY    57  55  94 N6        29.99R
NEWARK         PTCLDY    70  48  45 W6        29.97R
TETERBORO      PTCLDY    69  50  50 NW10      29.96R
CALDWELL       PTCLDY    66  52  60 CALM      29.99R
SOMERVILLE     CLEAR     60  59  96 CALM      29.97R
ALLAIRE*       CLEAR     68  57  68 N3        30.00R
TOMS RIVER*    CLEAR     66  53  63 NW3       30.00R

$$
PAZ043-044-047-054-055-060>062-066>071-280300-
EASTERN PENNSYLVANIA

CITY           SKY/WX    TMP DP  RH WIND       PRES   REMARKS
PHILADELPHIA   PTCLDY    73  47  39 NW9       30.01R
NORTH PHILA    CLEAR     71  48  43 NW8       30.01R
DOYLESTOWN     PTCLDY    67  47  48 W7        30.00R
QUAKERTOWN*    PTCLDY    66  46  48 W3        30.03R
PERKASIE*      FAIR      64  46  52 W8        30.02R
POTTSTOWN      CLEAR     65  46  50 NW5       30.03R
LANCASTER      CLEAR     66  48  52 NW10      30.04R
READING        CLEAR     65  50  58 NW13      30.02R
ALLENTOWN      CLEAR     66  46  48 NW7       30.01R
MOUNT POCONO   CLEAR     55  47  74 NW8       30.03R
WILKES BARRE   CLOUDY    63  47  55 W7        30.03R

$$
DEZALL-MDZ008-012-015-019-020-280300-
DELAWARE AND EASTERN MARYLAND

CITY           SKY/WX    TMP DP  RH WIND       PRES   REMARKS
WILMINGTON     CLEAR     66  51  58 NW6       30.02R
DOVER          MOCLDY    70  58  65 W6        30.00R
GEORGETOWN     PTCLDY    69  56  62 SW3       30.02R
EASTON         PTCLDY    67  57  71 CALM      30.06R
ABERDEEN       CLEAR     68  48  47 NW6       30.03R
PATUXENT       PTCLDY    65  59  81 SW3       30.01R
OCEAN CITY     LGT RAIN  67  54  63 W9        30.03R
WALLOPS ISLAND MOCLDY    69  52  54 NW9       30.04R
CAMBRIDGE      PTCLDY    64  59  82 CALM      30.02R
SALISBURY      CLOUDY    62  59  90 S7        30.03R

$$
PAZ001-021-NYZ056-072-MDZ011-DCZ001-280300-
OTHER NEARBY LOCATIONS

CITY           SKY/WX    TMP DP  RH WIND       PRES   REMARKS
HARRISBURG     PTCLDY    66  48  52 NW13      30.04R
WILLIAMSPORT   CLEAR     59  54  83 W3        30.04R
BINGHAMTON     CLOUDY    52  50  93 W8        30.02R
NEW YORK CITY  PTCLDY    71  47  42 VRB6      30.00R
BALTIMORE      PTCLDY    69  48  47 NW6       30.03R
WASHINGTON DC  MOCLDY    73  48  41 N15       30.04R

$$



USA.gov is the U.S. government's official web portal to all federal, state and local government web resources and services.